N0MQJ Weather Reports


Display with metric or nautical units.
time (UTC)temp
F
wind
direction
speed
MPH
gust
MPH
rain 1hr
in
rain 24hr
in
rain mn
in
humidity
%
barometer
mb
20260508013051 48 291 0.0 4.0 0.00 0.00 0.00 38 1011.6
20260508011519 49 22 0.0 6.0 0.00 0.00 0.00 37 1011.7
20260508010028 49 26 2.0 7.0 0.00 0.00 0.00 37 1011.7
20260508004526 49 24 0.0 4.0 0.00 0.00 0.00 36 1012.0
20260508003031 50 25 1.0 11.0 0.00 0.00 0.00 33 1012.1
20260508001558 51 17 4.0 12.0 0.00 0.00 0.00 33 1012.2
20260508000052 51 348 4.0 12.0 0.00 0.00 0.00 32 1012.2
20260507234537 52 346 1.0 16.0 0.00 0.00 0.00 34 1012.3
20260507233145 52 19 6.0 14.0 0.00 0.00 0.00 34 1012.4
20260507231546 52 22 5.0 11.0 0.00 0.00 0.00 34 1012.6
20260507230013 50 34 1.0 8.0 0.00 0.01 0.00 38 1012.9
20260507224540 50 13 1.0 9.0 0.00 0.01 0.00 39 1013.0
20260507223014 50 24 0.0 10.0 0.00 0.01 0.00 37 1013.0
20260507221535 51 360 2.0 14.0 0.00 0.01 0.00 36 1013.3
20260507220043 50 88 4.0 12.0 0.00 0.01 0.00 36 1013.5
20260507214641 50 15 2.0 14.0 0.00 0.02 0.00 34 1013.7
20260507213014 50 15 2.0 17.0 0.00 0.02 0.00 34 1014.0
20260507211559 50 355 2.0 14.0 0.00 0.02 0.00 36 1014.3
20260507210023 51 49 4.0 13.0 0.00 0.02 0.00 34 1014.4
20260507204527 51 40 2.0 11.0 0.00 0.10 0.00 43 1014.6
20260507203040 50 5 2.0 9.0 0.00 0.10 0.00 38 1014.9
20260507201525 49 70 4.0 13.0 0.00 0.10 0.00 40 1015.0
20260507200150 49 360 1.0 11.0 0.00 0.10 0.00 41 1015.3
20260507194520 49 5 0.0 9.0 0.00 0.21 0.00 39 1015.6
20260507193129 51 14 0.0 10.0 0.00 0.21 0.00 36 1015.8
20260507191524 52 9 3.0 15.0 0.00 0.21 0.00 35 1015.8
20260507190005 51 5 1.0 7.0 0.00 0.22 0.00 44 1016.1
20260507184527 50 253 0.0 10.0 0.00 0.22 0.00 41 1016.4
20260507183025 49 265 0.0 9.0 0.00 0.22 0.00 43 1017.1
20260507181526 48 34 2.0 8.0 0.00 0.22 0.00 40 1017.4
20260507180111 49 355 0.0 6.0 0.00 0.22 0.00 40 1017.6
20260507174555 49 32 1.0 12.0 0.00 0.22 0.00 40 1017.7
20260507173139 49 41 2.0 7.0 0.00 0.22 0.00 42 1018.0
20260507171556 47 14 0.0 14.0 0.00 0.22 0.00 44 1018.3
20260507170012 47 32 0.0 10.0 0.00 0.22 0.00 43 1018.6
20260507164511 46 46 3.0 10.0 0.00 0.22 0.00 43 1019.0
20260507163058 46 42 1.0 10.0 0.00 0.22 0.00 44 1019.5
20260507161554 45 15 5.0 13.0 0.00 0.22 0.00 43 1019.9
20260507160056 45 60 2.0 10.0 0.00 0.22 0.00 44 1020.3
20260507154552 44 19 3.0 9.0 0.00 0.22 0.00 42 1020.4
20260507153101 42 336 1.0 4.0 0.00 0.22 0.00 47 1020.6
20260507151518 40 315 0.0 0.0 0.00 0.22 0.00 47 1020.9
20260507150016 39 316 0.0 0.0 0.00 0.22 0.00 49 1021.3
20260507144543 38 316 0.0 4.0 0.00 0.22 0.00 48 1021.1
20260507141548 36 236 0.0 6.0 0.00 0.22 0.00 50 1021.5
20260507140050 35 360 0.0 0.0 0.00 0.22 0.00 49 1021.7
20260507134555 34 360 0.0 3.0 0.00 0.22 0.00 52 1021.7
20260507133032 33 360 0.0 0.0 0.00 0.22 0.00 55 1021.5
20260507131554 32 360 0.0 0.0 0.00 0.22 0.00 55 1021.6
20260507130045 31 351 0.0 4.0 0.00 0.22 0.00 54 1021.6
20260507124645 29 350 0.0 0.0 0.00 0.22 0.00 56 1021.7
20260507123042 28 350 0.0 4.0 0.00 0.22 0.00 56 1021.8
20260507121628 28 346 0.0 0.0 0.00 0.22 0.00 56 1021.9
20260507120045 28 346 0.0 2.0 0.00 0.22 0.00 56 1021.7
20260507114616 28 345 0.0 0.0 0.00 0.22 0.00 55 1021.7
20260507113045 28 345 0.0 0.0 0.00 0.22 0.00 55 1021.6
20260507111550 27 345 0.0 0.0 0.00 0.22 0.00 57 1021.7
20260507110054 27 344 0.0 3.0 0.00 0.22 0.00 57 1021.7
20260507104534 28 344 0.0 0.0 0.00 0.22 0.00 56 1021.6
20260507103040 28 333 0.0 2.0 0.00 0.22 0.00 55 1021.6
20260507101623 27 21 0.0 0.0 0.00 0.22 0.00 56 1021.6
20260507100027 26 22 0.0 4.0 0.00 0.22 0.00 59 1021.3
20260507094644 25 22 0.0 0.0 0.00 0.22 0.00 60 1021.5
20260507093025 24 22 0.0 0.0 0.00 0.22 0.00 56 1021.8
20260507091507 24 23 0.0 0.0 0.00 0.22 0.00 55 1021.8
20260507090026 24 23 0.0 0.0 0.00 0.22 0.00 52 1021.8
20260507083013 25 23 0.0 0.0 0.00 0.22 0.00 56 1022.1
20260507081546 25 23 0.0 0.0 0.00 0.22 0.00 55 1021.9
20260507080036 25 23 0.0 0.0 0.00 0.22 0.00 55 1021.8
20260507074553 26 23 0.0 0.0 0.00 0.22 0.00 56 1021.8
20260507073034 25 23 0.0 0.0 0.00 0.22 0.00 56 1021.7
20260507071539 25 23 0.0 0.0 0.00 0.22 0.00 60 1021.6
20260507070020 26 23 0.0 0.0 0.00 0.22 0.00 60 1021.2
20260507064601 26 23 0.0 0.0 0.00 0.22 0.00 60 1021.2
20260507063056 26 23 0.0 5.0 0.00 0.22 0.00 63 1021.1
20260507061606 27 17 0.0 3.0 0.00 0.22 0.00 63 1021.0
20260507060056 26 17 0.0 0.0 0.00 0.22 0.00 65 1020.9
20260507054557 26 17 0.0 0.0 0.00 0.22 0.22 66 1020.7
20260507053025 26 17 0.0 0.0 0.00 0.22 0.22 69 1020.7
20260507051529 27 17 0.0 0.0 0.00 0.22 0.22 69 1020.5
20260507050013 27 16 0.0 0.0 0.00 0.22 0.22 69 1020.3
20260507044508 27 17 0.0 0.0 0.00 0.22 0.22 69 1020.1
20260507043112 28 16 0.0 2.0 0.00 0.22 0.22 69 1020.0
20260507041554 28 17 0.0 3.0 0.00 0.22 0.22 68 1019.8
20260507040050 29 17 0.0 4.0 0.00 0.22 0.22 67 1019.6
20260507034602 29 23 1.0 8.0 0.00 0.22 0.22 66 1019.3
20260507033044 29 19 1.0 8.0 0.00 0.22 0.22 67 1019.1
20260507031516 28 30 1.0 5.0 0.00 0.22 0.22 70 1018.7
20260507030050 28 18 0.0 0.0 0.00 0.22 0.22 72 1018.6
20260507024543 29 19 0.0 0.0 0.00 0.22 0.22 73 1018.3
20260507023043 29 19 0.0 2.0 0.00 0.22 0.22 72 1018.1
20260507021523 30 21 0.0 7.0 0.00 0.22 0.22 69 1017.8
20260507020031 31 18 0.0 7.0 0.00 0.22 0.22 66 1017.7
20260507014614 32 11 0.0 4.0 0.00 0.22 0.22 66 1017.6